{"data":{"norad_id":47356,"epoch":"2026-09-19T12:54:41.623200Z","epoch_age_seconds":105050,"freshness":"FRESH","line1":"1 47356U 21005H   26262.53798175  .00001100  00000+0  47213-4 0  9998","line2":"2 47356  53.1599 214.8406 0001372  77.0276 283.0879 15.31698998313087","mean_motion":15.31698998,"eccentricity":0.0001372,"inclination_deg":53.1599,"raan_deg":214.8406,"arg_perigee_deg":77.0276,"mean_anomaly_deg":283.0879,"bstar":4.7213e-5,"rev_number":31308,"period_min":94.013249462216,"perigee_km":469.80331580359,"apogee_km":471.68264847069,"semimajor_km":6848.8799821371,"source":"CELESTRAK","updated_at":"2026-09-20T09:00:38.589571Z"}}